Location: Tafessasset
(32.5899°N, 5.4824°W)
Time: 06:02:29
(UTC+00:00)

ALOS - Pass Details

Date: 18 February 2020
Orbit: 683 x 685 km, 97.8° (Epoch: 06 April)

Event Time Altitude Azimuth Distance (km) Brightness Sun altitude
Rises 05:54:25 0° 4° (N) 3,052 5.6 -15.0°
Reaches altitude 10° 05:56:44 10° 358° (N) 2,132 4.7 -14.5°
Maximum altitude 06:01:10 45° 286° (WNW) 935 2.5 -13.6°
Drops below altitude 10° 06:05:34 10° 214° (SW) 2,120 4.5 -12.7°
Sets 06:07:52 0° 208° (SSW) 3,031 5.4 -12.2°
